Regional Weather Roundup
Issued by NWS Sterling, VA

Home | Current Version | Previous Version | Graphics & Text | Print | Product List | Glossary On
Versions: 1 2 3 4 5 6 7 8 9 10 11 12 13 14 15 16 17 18 19 20 21 22 23 24 25 26 27 28 29 30 31 32 33 34 35 36 37 38 39 40 41 42 43 44 45 46 47 48 49 50
000
ASUS41 KLWX 060110
RWRLWX

REGIONAL WEATHER ROUNDUP
NATIONAL WEATHER SERVICE BALTIMORE MD/WASHINGTON DC
800 PM EST FRI FEB 05 2016

Note: "FAIR" indicates few or no clouds below 12,000 feet
with no significant weather and/or obstructions to visibility.
 TC=TEMPERATURE CELSIUS

 * =Non NWS site. Station does not report precipitation (e.g. rain,
    snow, etc.), thunder, or fog.

DCZ001-MDZ009-015-VAZ040>042-051-053>054-060200-
WASHINGTON METRO

CITY           SKY/WX    TMP DP  RH WIND       PRES   REMARKS
WASHINGTON NAT FAIR      37  18  46 N9        30.39R
DULLES         FAIR      32  18  56 N5        30.38R
ANDREWS AFB    PTCLDY    35  17  48 NW8       30.36R WCI  29
FT BELVOIR     FAIR      32  18  56 N1        30.38R
QUANTICO       FAIR      38  16  40 N6        30.40R
COLLEGE PARK*  FAIR      36  18  48 NW5       30.38R
LEESBURG*      FAIR      34  23  64 CALM      30.39R
MANASSAS*      CLEAR     28  19  69 W3        30.39R
GAITHERSBURG*  PTCLDY    30  14  51 NW7       30.40S

$$

MDZ006>007-011-014-060200-
BALTIMORE METRO

CITY           SKY/WX    TMP DP  RH WIND       PRES   REMARKS
BWI AIRPORT    PTCLDY    32  20  61 W5        30.36R
MD SCIENCE CTR   N/A     37  19  48 MISG      30.37R
MARTIN STATE   CLEAR     34  23  64 W9        30.38  WCI  26
ANNAPOLIS      PTCLDY    37  21  52 NW8       30.37R
FORT MEADE*    PTCLDY    32  21  64 W3        30.39S

$$

MDZ012-015-019>023-060200-
MARYLAND EASTERN SHORE

CITY           SKY/WX    TMP DP  RH WIND       PRES   REMARKS
OCEAN CITY     CLEAR     36  23  59 NW8       30.34R
SALISBURY      PTCLDY    35  23  61 NW6       30.35R
BAY BRIDGE AP*   N/A     36  21  55 NW10      30.37S WCI  28
CAMBRIDGE*     PTCLDY    36  23  60 NW8       30.36R

$$

MDZ017>025-060200-
SOUTHERN MARYLAND

CITY           SKY/WX    TMP DP  RH WIND       PRES   REMARKS
PATUXENT RIVER PTCLDY    36  22  56 NW7       30.37R
ST INIGOES     CLEAR     37  21  52 NW6       30.36S
LEONARDTOWN*   CLEAR     32  21  64 CALM      30.39R

$$

MDZ003>005-060200-
NORTH CENTRAL MARYLAND

CITY           SKY/WX    TMP DP  RH WIND       PRES   REMARKS
FREDERICK*     PTCLDY    32  21  64 CALM      30.41R
HAGERSTOWN APT CLEAR     32  16  51 CALM      30.36R
WESTMINSTER*   PTCLDY    32  23  69 CALM      30.34S

$$

MDZ501>502-060200-
WESTERN MARYLAND

CITY           SKY/WX    TMP DP  RH WIND       PRES   REMARKS
OAKLAND*       CLEAR     23  14  68 NW3       30.27S
CUMBERLAND*    CLEAR     32  18  55 CALM      30.41S

$$

VAZ025>031-060200-
SHENANDOAH VALLEY

CITY           SKY/WX    TMP DP  RH WIND       PRES   REMARKS
WINCHESTER*    FAIR      32  18  55 NW5       30.37R
FRONT ROYAL*   FAIR      32  16  51 CALM      30.36S
LURAY*         FAIR      32  18  55 E3        30.36S
NEW MARKET*    FAIR      26  19  76 CALM      30.36S
STAUNTON*      FAIR      32  20  59 CALM      30.37S
WAYNESBORO*    FAIR      32  10  39 CALM      30.34S

$$

WVZ021-048>050-054>055-060200-
EASTERN WEST VIRGINIA PANHANDLE

CITY           SKY/WX    TMP DP  RH WIND       PRES   REMARKS
MARTINSBURG    FAIR      32  15  49 N6        30.37S
PETERSBURG*    FAIR      30  19  64 CALM      30.38S

$$

VAZ036>039-050-060200-
CENTRAL FOOTHILLS

CITY           SKY/WX    TMP DP  RH WIND       PRES   REMARKS
CHARLOTTESVILL FAIR      37  12  35 NW6       30.35F
CULPEPER*      FAIR      28  20  73 CALM      30.39R
ORANGE*        FAIR      30  21  69 CALM      30.39S
GORDONSVILLE*  FAIR      29  19  66 CALM      30.36F
WARRENTON*     FAIR      29  23  77 NE3       30.38S

$$

VAZ055>057-060200-
NORTH AND CENTRAL PIEDMONT

CITY           SKY/WX    TMP DP  RH WIND       PRES   REMARKS
FREDERICKSBRG* FAIR      32  22  68 NW5       30.38S
STAFFORD*      FAIR      30  18  60 CALM      30.42S

$$

NCZ024-NYZ072-PAZ021-071-VAZ022-071-060200-
OTHER REGIONAL OBSERVATIONS

CITY           SKY/WX    TMP DP  RH WIND       PRES   REMARKS
NEW YORK CITY  CLEAR     35  14  42 NW8G21    30.30R WCI  29
PHILADELPHIA   CLEAR     37  16  42 NW8       30.33S
PITTSBURGH     PTCLDY    30  16  56 CALM      30.35F
ROANOKE        FAIR      35  13  40 W5        30.38S
RICHMOND       FAIR      34  21  59 N6        30.37R
RALEIGH        PTCLDY    37  22  54 CALM      30.38R

$$

ANZ530>537-060200-
MARINE OBSERVATIONS

STATION/POSITION TIME  TEMP    WIND        PRES
                       AIR SEA DIR/SP/G
                 (UTC) (F)     (DEG/KT/KT) (MB)
THOMAS PT LIGHT  0100          320/  9       N/A

$$




USA.gov is the U.S. government's official web portal to all federal, state and local government web resources and services.